Weather in Andreevo

Russia / Vladimir Oblast     55°56′39″N   41°09′03″E
temp.,
°C
wind,
m/s
gust,
m/s
humid.,
%
clouds,
%
prec.,
mm/h
press.,
hPa
HPBL,
m
17 june, thu
thu1700:00+12nnw39680 0.0 1018163
03:00+11nnw25690 0.0 1019102
06:00+14nnw24635 0.0 1020121
09:00+19nw354758 0.0 1021673
12:00+22nnw56365 0.0 10221655
15:00+23n46375 0.0 10231959
18:00+21n365187 0.0 10231593
21:00+15n25700 0.0 102581
18 june, fri
fri1800:00+13n11750 0.0 102610
03:00+12nnw11770 0.0 102710
06:00+15n11698 0.0 102897
09:00+21nw12528 0.0 1028709
12:00+24nnw23435 0.0 10271752
15:00+25nw22415 0.0 10261771
18:00+24nnw235326 0.0 1026705
21:00+17sse1177100 0.0 102611
19 june, sat
sat1900:00+15wsw238719 0.0 102751
03:00+14wsw35915 0.0 102792
06:00+17wsw387813 0.0 1027219
09:00+23wsw465465 0.0 1027757
12:00+26w45415 0.0 10261446
15:00+27w453847 0.0 10241715
18:00+26w35503 0.0 1024836
21:00+19wsw22795 0.0 102437
20 june, sun
sun2000:00+16wsw35895 0.0 102589
03:00+15wsw25960 0.0 102596
06:00+18wsw25822 0.0 1025160
09:00+24wsw23590 0.0 1024650
12:00+27wsw22430 0.0 10231443
15:00+29wsw22372 0.0 10221770
18:00+27wnw23510 0.0 1021493
21:00+20sw11780 0.0 102211
21 june, mon
mon2100:00+17wsw23860 0.0 102239
03:00+16wsw228959 0.0 102327
06:00+19wsw238072 0.0 1022122
09:00+24wsw2357100 0.0 1022658
12:00+27sw3342100 0.0 10211320
15:00+28sw3341100 0.0 10211367
18:00+26wnw2357100 0.0 1020252
21:00+20nne0077100 0.0 102011